Location: Altleiningen
(49.5078°N, 8.0741°E)
Time: 20:18:38
(UTC+00:00)

Cosmos 1782 Rocket - Pass Details

Date: 14 June 2025
Orbit: 602 x 624 km, 82.5° (Epoch: 16 July)

Event Time Altitude Azimuth Distance (km) Brightness Sun altitude
Rises 22:55:10 0° 355° (N) 2,905 8.8 -16.8°
Reaches altitude 10° 22:57:30 10° 2° (N) 1,998 7.5 -16.9°
Maximum altitude 23:01:43 43° 74° (ENE) 876 4.4 -16.9°
Enters shadow 23:03:58 24° 133° (SE) 1,292 4.8 -17.0°
